Regional Weather Roundup
Issued by NWS Portland, ME

Current Version | Previous Version | Text Only | Print | Product List | Glossary On
Versions: 1 2 3 4 5 6 7 8 9 10 11 12 13 14 15 16 17 18 19 20 21 22 23 24 25 26 27 28 29 30 31 32 33 34 35 36 37 38 39 40 41 42 43 44 45 46 47 48 49 50
000 ASUS41 KGYX 062010 RWRGYX WEATHER ROUNDUP FOR MAINE AND NEW HAMPSHIRE NATIONAL WEATHER SERVICE GRAY ME 300 PM EST SAT FEB 06 2016 MEZ002-005-006-010-012-015-018-020-021-024-026-027-029-062100- MAINE CITY SKY/WX TMP DP RH WIND PRES REMARKS PORTLAND MOSUNNY 35 24 64 SW9 30.22F SANFORD MOSUNNY 34 25 69 S8 30.23S BAR HARBOR SUNNY 34 27 75 SW12 30.21F WISCASSET MOSUNNY 36 25 64 SW8G21 30.22F ROCKLAND SUNNY 35 24 64 SW16 30.21F FRYEBURG MOSUNNY 36 20 52 SW12G21 30.16F LEWISTONAUBURN MOSUNNY 36 18 48 SW17 30.17S AUGUSTA PTSUNNY 34 20 56 S9G18 30.18S WATERVILLE CLOUDY 34 21 59 SW8 30.14F BANGOR CLOUDY 33 21 61 S13 30.17F GREENVILLE N/A 27 17 66 VRB7 30.04F MILLINOCKET CLOUDY 31 18 58 CALM 30.15S HOULTON CLOUDY 27 17 66 SW10G18 30.12S WCI 17 PRESQUE ISLE CLOUDY 28 14 55 SW12 30.09S WCI 18 FRENCHVILLE MIX PCPN 24 10 55 W9 30.02S CARIBOU CLOUDY 29 12 49 SW8 30.06S $$ NHZ002-005-008-009-011-012-014-062100- NEW HAMPSHIRE CITY SKY/WX TMP DP RH WIND PRES REMARKS PORTSMOUTH PTSUNNY 35 26 70 S8 30.22F ROCHESTER SUNNY 35 28 75 S3 30.21F NASHUA MOSUNNY 37 25 60 VRB6 30.24F MANCHESTER PTSUNNY 37 23 56 S13 30.21F CONCORD SUNNY 39 18 42 SW9 30.20F LACONIA CLOUDY 36 18 48 SW12G18 30.17F PLYMOUTH PTSUNNY 38 17 43 S5 30.14F BERLIN PTSUNNY 35 17 47 SW13G23 30.08F WHITEFIELD CLOUDY 36 18 48 SW10G22 30.09F JAFFREY MOSUNNY 35 18 49 S12 30.18F KEENE SUNNY 37 18 44 SW13G20 30.19F LEBANON PTSUNNY 41 18 39 SW8G20 30.13F MT WASHINGTON FOG 10 10 100 SW43 N/A VSB 1/16WCI -15 $$ VTZ005-007-008-062100- VERMONT CITY SKY/WX TMP DP RH WIND PRES REMARKS ST JOHNSBURY N/A 37 18 46 MISG 30.09F MONTPELIER CLOUDY 35 18 49 SW9 30.13S BURLINGTON CLOUDY 37 21 52 S14G25 30.12S $$ MAZ007-012-024-CTZ003-RIZ002-NYZ038-NYZ072-062100- SOUTHERN NEW ENGLAND AND NY CITY SKY/WX TMP DP RH WIND PRES REMARKS BOSTON PTSUNNY 35 24 64 SW16 30.28F WORCESTER SUNNY 33 20 58 S12 30.21F NANTUCKET MOSUNNY 37 25 61 SW15 30.33F PROVIDENCE PTSUNNY 35 23 61 SW14 30.31F HARTFORD PTSUNNY 36 21 54 S17 30.25F ALBANY CLOUDY 41 16 36 S15 30.18F NEW YORK CITY PTSUNNY 40 20 44 SW14 30.30F $$ ANZ081-ANZ082-ANZ150-NHZ014-MEZ023>029-062100- COASTAL MARINE OBSERVATIONS STATION/POSITION TIME TEMP WIND PRES WAVE AIR SEA DIR/SP/G HT/PER (UTC) (F) (DEG/KT/KT) (MB) (FT/S) MOUNT DESERT ROC 2000 36 220/ 22/ 25 1023.7F MATINICUS ROCK 2000 230/ 24/ 26 1023.6F ISLE OF SHOALS 2000 35 220/ 22/ 26 1023.4F JEFFREYS LEDGE 1904 44 N/A 4/ 4 CASHES LEDGE BUO 1950 36 43 230/ 19/ 25 1024.5F 4/10 GEORGES BANK BUO 1950 38 45 1027.0F 8/ 9 $$ .............KEY.............. WCI - WIND CHILL TC - TEMPERATURE IN CELSIUS VSB - VISIBILITY IN MILES HX - HEAT INDEX FAIR- INDICATES FEW OR NO CLOUDS BELOW 12,000 FT, WITH NO SIGNIFICANT WEATHER AND/OR OBSTRUCTIONS TO VISIBILITY.

USA.gov is the U.S. government's official web portal to all federal, state and local government web resources and services.